FDX8483 EBLG-EGNX

Flight info

Callsign FDX8483
Flight time 0h 52m
Altitude 30000
Route BUB L608 DENUT L610 RAPIX DCT WELIN
Aircraft B77L/H-SDE1E2E3FGHIJ2J3J4J5M1RWXY/LB1D1

Departure

Time 2026-04-26 16:10
Airport Liège Airport (EBLG)

Arrival

Time 2026-04-26 17:02
Airport East Midlands Airport (EGNX)
Time Latitude Longitude Altitude Speed Heading
2026-04-26 15:50 50.63800 5.45061 672 ft 0 kts 135°
2026-04-26 16:00 50.63803 5.45057 673 ft 2 kts 135°
2026-04-26 16:01 50.63814 5.45040 673 ft 3 kts 139°
2026-04-26 16:01 50.63831 5.45024 673 ft 3 kts 160°
2026-04-26 16:01 50.63851 5.45018 673 ft 3 kts 182°
2026-04-26 16:01 50.63871 5.45024 673 ft 3 kts 202°
2026-04-26 16:02 50.63888 5.45041 673 ft 3 kts 221°
2026-04-26 16:02 50.63892 5.45047 673 ft 0 kts 224°
2026-04-26 16:03 50.63892 5.45046 673 ft 0 kts 224°
2026-04-26 16:03 50.63858 5.44980 673 ft 12 kts 233°
2026-04-26 16:04 50.63808 5.44890 673 ft 10 kts 226°
2026-04-26 16:04 50.63747 5.44793 673 ft 16 kts 225°
2026-04-26 16:04 50.63674 5.44679 673 ft 14 kts 225°
2026-04-26 16:04 50.63608 5.44574 673 ft 15 kts 225°
2026-04-26 16:05 50.63534 5.44455 673 ft 14 kts 225°
2026-04-26 16:05 50.63469 5.44351 673 ft 12 kts 225°
2026-04-26 16:05 50.63408 5.44257 673 ft 14 kts 224°
2026-04-26 16:05 50.63340 5.44150 673 ft 13 kts 225°
2026-04-26 16:06 50.63282 5.44055 673 ft 11 kts 226°
2026-04-26 16:06 50.63226 5.43968 673 ft 13 kts 227°
2026-04-26 16:06 50.63199 5.43842 673 ft 13 kts 301°
2026-04-26 16:06 50.63243 5.43828 673 ft 10 kts 14°
2026-04-26 16:07 50.63357 5.43855 673 ft 20 kts 347°
2026-04-26 16:07 50.63441 5.43768 673 ft 16 kts 316°
2026-04-26 16:07 50.63503 5.43623 673 ft 13 kts 258°
2026-04-26 16:07 50.63428 5.43496 673 ft 19 kts 225°
2026-04-26 16:08 50.63325 5.43334 673 ft 25 kts 225°
2026-04-26 16:08 50.63202 5.43138 673 ft 24 kts 225°
2026-04-26 16:08 50.63102 5.42972 673 ft 19 kts 207°
2026-04-26 16:08 50.62965 5.42994 673 ft 20 kts 150°
2026-04-26 16:09 50.62908 5.43096 673 ft 7 kts 76°
2026-04-26 16:09 50.62970 5.43193 673 ft 37 kts 44°
2026-04-26 16:09 50.63410 5.43889 673 ft 142 kts 45°
2026-04-26 16:09 50.64292 5.45297 1039 ft 202 kts 45°
2026-04-26 16:10 50.65303 5.46953 2213 ft 220 kts 47°
2026-04-26 16:10 50.66312 5.48731 3508 ft 215 kts 48°
2026-04-26 16:10 50.67371 5.50447 4441 ft 225 kts 44°
2026-04-26 16:10 50.68560 5.52209 5034 ft 242 kts 43°
2026-04-26 16:11 50.69818 5.54049 5265 ft 251 kts 44°
2026-04-26 16:11 50.71070 5.56000 5305 ft 254 kts 45°
2026-04-26 16:11 50.72404 5.57830 5568 ft 256 kts 33°
2026-04-26 16:11 50.74081 5.58722 5934 ft 257 kts
2026-04-26 16:12 50.75830 5.58238 6392 ft 258 kts 337°
2026-04-26 16:12 50.77226 5.56522 6862 ft 261 kts 309°
2026-04-26 16:12 50.77913 5.51015 7832 ft 267 kts 259°
2026-04-26 16:13 50.77433 5.48144 8204 ft 272 kts 259°
2026-04-26 16:13 50.77271 5.45182 8286 ft 270 kts 273°
2026-04-26 16:13 50.77608 5.42282 8309 ft 268 kts 287°
2026-04-26 16:13 50.78149 5.39454 8442 ft 268 kts 287°
2026-04-26 16:14 50.78658 5.36619 8894 ft 269 kts 287°
2026-04-26 16:14 50.79162 5.33760 9418 ft 271 kts 285°
2026-04-26 16:14 50.80047 5.27891 10622 ft 280 kts 283°
2026-04-26 16:15 50.80477 5.24830 11232 ft 298 kts 283°
2026-04-26 16:15 50.80940 5.21528 11848 ft 317 kts 283°
2026-04-26 16:15 50.81432 5.18031 12462 ft 335 kts 283°
2026-04-26 16:16 50.82485 5.10472 13680 ft 365 kts 283°
2026-04-26 16:16 50.83033 5.06486 14278 ft 376 kts 283°
2026-04-26 16:16 50.83601 5.02399 14874 ft 382 kts 284°
2026-04-26 16:16 50.84203 4.98286 15492 ft 384 kts 284°
2026-04-26 16:17 50.84792 4.94148 16078 ft 387 kts 283°
2026-04-26 16:17 50.85369 4.89977 16682 ft 389 kts 283°
2026-04-26 16:17 50.85937 4.85776 17308 ft 391 kts 283°
2026-04-26 16:17 50.86498 4.81602 17994 ft 393 kts 283°
2026-04-26 16:18 50.87066 4.77350 18702 ft 396 kts 283°
2026-04-26 16:18 50.88214 4.68731 20100 ft 403 kts 283°
2026-04-26 16:19 50.89405 4.59943 21504 ft 411 kts 285°
2026-04-26 16:19 50.90287 4.55611 22204 ft 415 kts 292°
2026-04-26 16:19 50.92363 4.48701 23365 ft 421 kts 298°
2026-04-26 16:20 50.94255 4.43265 24289 ft 427 kts 300°
2026-04-26 16:20 50.97336 4.35131 25691 ft 434 kts 301°
2026-04-26 16:20 50.98911 4.31017 26393 ft 437 kts 301°
2026-04-26 16:21 51.00488 4.26881 27092 ft 440 kts 301°
2026-04-26 16:21 51.02076 4.22704 27794 ft 443 kts 301°
2026-04-26 16:21 51.03673 4.18496 28498 ft 445 kts 301°
2026-04-26 16:21 51.05281 4.14250 28990 ft 451 kts 302°
2026-04-26 16:22 51.06904 4.09967 29392 ft 453 kts 302°
2026-04-26 16:22 51.08569 4.05703 29793 ft 454 kts 303°
2026-04-26 16:22 51.10249 4.01434 30191 ft 456 kts 302°
2026-04-26 16:22 51.11907 3.97115 30299 ft 457 kts 301°
2026-04-26 16:23 51.15155 3.88452 30302 ft 458 kts 301°
2026-04-26 16:23 51.18407 3.79736 30303 ft 457 kts 301°
2026-04-26 16:24 51.21601 3.70967 30322 ft 457 kts 297°
2026-04-26 16:24 51.24242 3.61737 30342 ft 458 kts 291°
2026-04-26 16:25 51.25583 3.51794 30362 ft 460 kts 279°
2026-04-26 16:25 51.26723 3.41734 30353 ft 460 kts 283°
2026-04-26 16:26 51.27833 3.33436 30354 ft 460 kts 283°
2026-04-26 16:26 51.29371 3.21749 30355 ft 460 kts 284°
2026-04-26 16:27 51.30710 3.11765 30352 ft 460 kts 283°
2026-04-26 16:27 51.31963 3.01815 30353 ft 459 kts 282°
2026-04-26 16:28 51.33211 2.91798 30354 ft 460 kts 282°
2026-04-26 16:28 51.34461 2.81749 30354 ft 460 kts 282°
2026-04-26 16:29 51.35724 2.71704 30354 ft 460 kts 283°
2026-04-26 16:29 51.36996 2.61667 30353 ft 460 kts 282°
2026-04-26 16:30 51.38198 2.51625 30351 ft 459 kts 281°
2026-04-26 16:30 51.39388 2.41597 30349 ft 459 kts 281°
2026-04-26 16:31 51.40571 2.31617 30347 ft 458 kts 281°
2026-04-26 16:31 51.41783 2.21594 30346 ft 459 kts 282°
2026-04-26 16:32 51.42815 2.13201 30343 ft 458 kts 281°
2026-04-26 16:32 51.44217 2.01538 30341 ft 458 kts 281°
2026-04-26 16:33 51.45445 1.91501 30332 ft 458 kts 282°
2026-04-26 16:33 51.46816 1.82217 30328 ft 458 kts 284°
2026-04-26 16:34 51.48393 1.72303 30329 ft 458 kts 284°
2026-04-26 16:34 51.49970 1.62392 30331 ft 458 kts 284°
2026-04-26 16:35 51.51538 1.52459 30330 ft 459 kts 284°
2026-04-26 16:35 51.53100 1.42506 30340 ft 459 kts 284°
2026-04-26 16:36 51.54653 1.32548 30344 ft 459 kts 283°
2026-04-26 16:36 51.56197 1.22581 30345 ft 460 kts 283°
2026-04-26 16:37 51.57738 1.12572 30345 ft 461 kts 283°
2026-04-26 16:37 51.59011 1.04263 30348 ft 461 kts 283°
2026-04-26 16:38 51.60783 0.92625 30351 ft 462 kts 283°
2026-04-26 16:38 51.62291 0.82648 30037 ft 461 kts 283°
2026-04-26 16:39 51.63045 0.77639 29592 ft 458 kts 283°
2026-04-26 16:39 51.63793 0.72652 29195 ft 456 kts 282°
2026-04-26 16:39 51.64533 0.67705 28797 ft 454 kts 282°
2026-04-26 16:39 51.65271 0.62759 28397 ft 453 kts 282°
2026-04-26 16:40 51.66002 0.57839 27996 ft 451 kts 282°
2026-04-26 16:40 51.66729 0.52932 27593 ft 450 kts 282°
2026-04-26 16:40 51.67451 0.48041 27191 ft 448 kts 282°
2026-04-26 16:40 51.68169 0.43169 26792 ft 446 kts 282°
2026-04-26 16:41 51.68883 0.38309 26390 ft 444 kts 282°
2026-04-26 16:41 51.69593 0.33460 25987 ft 443 kts 282°
2026-04-26 16:41 51.70289 0.28696 25590 ft 441 kts 282°
2026-04-26 16:41 51.70988 0.23888 25189 ft 439 kts 282°
2026-04-26 16:42 51.71683 0.19099 24789 ft 438 kts 282°
2026-04-26 16:42 51.72373 0.14326 24390 ft 437 kts 282°
2026-04-26 16:42 51.73064 0.09545 23985 ft 435 kts 282°
2026-04-26 16:42 51.73785 0.04829 23582 ft 433 kts 284°
2026-04-26 16:43 51.74534 0.00131 23182 ft 430 kts 283°
2026-04-26 16:43 51.75240 -0.04548 22785 ft 428 kts 282°
2026-04-26 16:43 51.75910 -0.09211 22385 ft 425 kts 281°
2026-04-26 16:43 51.76560 -0.13843 21983 ft 422 kts 281°
2026-04-26 16:44 51.77201 -0.18400 21588 ft 420 kts 281°
2026-04-26 16:44 51.77856 -0.23041 21187 ft 418 kts 282°
2026-04-26 16:44 51.78495 -0.27549 20787 ft 416 kts 282°
2026-04-26 16:44 51.79140 -0.32087 20386 ft 414 kts 282°
2026-04-26 16:45 51.79868 -0.36574 19978 ft 412 kts 288°
2026-04-26 16:45 51.81183 -0.40698 19573 ft 416 kts 303°
2026-04-26 16:45 51.83143 -0.44138 19186 ft 416 kts 316°
2026-04-26 16:45 51.85427 -0.46963 18805 ft 412 kts 323°
2026-04-26 16:46 51.87841 -0.49418 18409 ft 406 kts 327°
2026-04-26 16:46 51.90267 -0.51681 18004 ft 400 kts 328°
2026-04-26 16:46 51.92665 -0.53888 17609 ft 394 kts 328°
2026-04-26 16:46 51.94995 -0.56079 17210 ft 388 kts 328°
2026-04-26 16:47 51.97304 -0.58288 16819 ft 383 kts 328°
2026-04-26 16:47 51.99595 -0.60460 16426 ft 378 kts 328°
2026-04-26 16:47 52.01845 -0.62625 16026 ft 374 kts 327°
2026-04-26 16:47 52.04062 -0.64788 15630 ft 370 kts 327°
2026-04-26 16:48 52.06253 -0.66940 15232 ft 366 kts 327°
2026-04-26 16:48 52.08422 -0.69081 14838 ft 362 kts 327°
2026-04-26 16:48 52.10559 -0.71190 14439 ft 359 kts 327°
2026-04-26 16:48 52.12686 -0.73294 14039 ft 355 kts 327°
2026-04-26 16:49 52.14787 -0.75375 13644 ft 352 kts 327°
2026-04-26 16:49 52.16876 -0.77443 13243 ft 350 kts 327°
2026-04-26 16:49 52.18948 -0.79500 12844 ft 347 kts 327°
2026-04-26 16:49 52.20985 -0.81517 12441 ft 335 kts 327°
2026-04-26 16:50 52.22934 -0.83447 12041 ft 321 kts 327°
2026-04-26 16:50 52.24182 -0.84686 11774 ft 313 kts 327°
2026-04-26 16:50 52.25997 -0.86512 11378 ft 301 kts 327°
2026-04-26 16:50 52.28326 -0.88791 10849 ft 288 kts 328°
2026-04-26 16:51 52.30019 -0.90452 10447 ft 280 kts 327°
2026-04-26 16:51 52.31135 -0.91555 10175 ft 275 kts 327°
2026-04-26 16:51 52.32733 -0.93141 9775 ft 268 kts 327°
2026-04-26 16:51 52.34307 -0.94709 9374 ft 262 kts 328°
2026-04-26 16:52 52.35851 -0.96246 8976 ft 259 kts 328°
2026-04-26 16:52 52.36878 -0.97270 8737 ft 261 kts 328°
2026-04-26 16:52 52.38945 -0.99328 8394 ft 258 kts 328°
2026-04-26 16:52 52.40478 -1.00838 8142 ft 256 kts 329°
2026-04-26 16:53 52.42073 -1.02120 7892 ft 255 kts 335°
2026-04-26 16:53 52.43711 -1.03205 7641 ft 253 kts 338°
2026-04-26 16:53 52.45355 -1.04219 7389 ft 251 kts 338°
2026-04-26 16:53 52.46961 -1.05231 7141 ft 250 kts 338°
2026-04-26 16:54 52.48610 -1.06192 6892 ft 248 kts 343°
2026-04-26 16:54 52.50276 -1.06696 6654 ft 246 kts 352°
2026-04-26 16:54 52.51983 -1.06932 6403 ft 245 kts 356°
2026-04-26 16:54 52.53682 -1.07045 6153 ft 244 kts 358°
2026-04-26 16:55 52.55374 -1.07103 5903 ft 243 kts 358°
2026-04-26 16:55 52.57065 -1.07154 5652 ft 242 kts 358°
2026-04-26 16:55 52.58748 -1.07211 5406 ft 242 kts 358°
2026-04-26 16:55 52.60434 -1.07271 5159 ft 242 kts 358°
2026-04-26 16:56 52.63811 -1.07400 4651 ft 242 kts 358°
2026-04-26 16:56 52.65492 -1.07467 4407 ft 242 kts 358°
2026-04-26 16:56 52.67172 -1.07536 4159 ft 242 kts 358°
2026-04-26 16:57 52.68864 -1.07608 3903 ft 243 kts 358°
2026-04-26 16:57 52.70551 -1.07680 3653 ft 242 kts 358°
2026-04-26 16:57 52.73903 -1.07832 3124 ft 243 kts 358°
2026-04-26 16:58 52.75602 -1.07912 2848 ft 244 kts 358°
2026-04-26 16:58 52.76743 -1.07967 2661 ft 242 kts 358°
2026-04-26 16:58 52.80588 -1.08418 2064 ft 232 kts 343°
2026-04-26 16:59 52.81903 -1.09747 2017 ft 214 kts 316°
2026-04-26 16:59 52.83195 -1.13596 1939 ft 167 kts 282°
2026-04-26 17:00 52.83374 -1.17157 2003 ft 153 kts 269°
2026-04-26 17:00 52.83318 -1.20750 1513 ft 157 kts 267°
2026-04-26 17:00 52.83284 -1.22529 1294 ft 152 kts 268°
2026-04-26 17:01 52.83252 -1.24275 1090 ft 152 kts 268°
2026-04-26 17:01 52.83220 -1.26031 894 ft 154 kts 268°
2026-04-26 17:01 52.83187 -1.27796 690 ft 154 kts 268°
2026-04-26 17:01 52.83155 -1.29554 487 ft 153 kts 269°
2026-04-26 17:02 52.83124 -1.31304 331 ft 147 kts 269°
2026-04-26 17:02 52.83095 -1.32807 321 ft 117 kts 267°
2026-04-26 17:02 52.83079 -1.33688 320 ft 46 kts 267°
2026-04-26 17:02 52.83069 -1.34177 320 ft 36 kts 269°
2026-04-26 17:03 52.83062 -1.34543 320 ft 25 kts 266°
2026-04-26 17:03 52.83013 -1.34654 320 ft 9 kts 188°
2026-04-26 17:03 52.82955 -1.34657 320 ft 10 kts 173°
2026-04-26 17:03 52.82905 -1.34574 320 ft 11 kts 101°
2026-04-26 17:04 52.82904 -1.34450 320 ft 13 kts 89°
2026-04-26 17:04 52.82904 -1.34286 320 ft 13 kts 92°
2026-04-26 17:04 52.82904 -1.34120 320 ft 16 kts 88°
2026-04-26 17:04 52.82907 -1.33950 320 ft 14 kts 89°
2026-04-26 17:05 52.82910 -1.33783 320 ft 15 kts 88°
2026-04-26 17:05 52.82913 -1.33627 320 ft 12 kts 88°
2026-04-26 17:05 52.82916 -1.33480 320 ft 14 kts 88°
2026-04-26 17:05 52.82919 -1.33327 320 ft 13 kts 88°
2026-04-26 17:06 52.82922 -1.33181 320 ft 12 kts 88°
2026-04-26 17:06 52.82924 -1.33045 320 ft 13 kts 88°
2026-04-26 17:06 52.82927 -1.32900 320 ft 13 kts 88°
2026-04-26 17:06 52.82930 -1.32751 320 ft 14 kts 89°
2026-04-26 17:07 52.82933 -1.32592 320 ft 13 kts 88°
2026-04-26 17:07 52.82936 -1.32458 320 ft 11 kts 88°
2026-04-26 17:07 52.82937 -1.32347 320 ft 9 kts 89°
2026-04-26 17:07 52.82938 -1.32258 320 ft 7 kts 89°
2026-04-26 17:08 52.82930 -1.32181 320 ft 8 kts 135°
2026-04-26 17:08 52.82888 -1.32157 320 ft 6 kts 138°
2026-04-26 17:08 52.82876 -1.32086 320 ft 7 kts 122°
2026-04-26 17:08 52.82836 -1.32065 320 ft 5 kts 171°
2026-04-26 17:09 52.82810 -1.32060 320 ft 1 kts 178°